Showing default

GAOFEN 3, 41727

Orbit data source: Space-Track

GAOFEN 3, 41727 is a payload satellite owned by GWHYZ (CN) in SSO that was launched on Tue, 09 Aug 2016 UTC via a CHANG ZHENG 4C launch vehicle from the Taiyaun Space Center, China (TSC). Payload-class satellites include a variety of spacecraft equipped with specific instruments for various scientific and technological missions. These include communications satellites like Starlink; space stations such as the ISS; scientific satellites like the Hubble; Earth observation satellites from companies like Planet Labs, Umbra, and HawkEye 360; GPS; miniature CubeSats for education and research; and military/defense satellites.

Loading next visibility...
Identifier
41727, 2016-049A
Orbit
SSO
Country
Flag of CNCN / PRC
Related business
Manufacturer
CAST
Mission
Operational Civil Radar Imaging
Bus & Motor
CS-L3000B, Unknown motor
Mass
~2,779 kg wet, ~2,500 kg dry
Launch date (UTC)
2016-08-09 (10 years ago)
Launch vehicle
CHANG ZHENG 4C
Launch site
Taiyaun Space Center, China (TSC)
Object type
Payload
Rocket body
Debris
Shape & HBR
Box + 3 Pan, 4.0 m
Radar Cross Section
10.846 m², Large (>1 m²)

Expand to show TLE details & history
Last TLE update: 5 hours ago

TLE from 5 hours ago
0 GAOFEN 3
1 41727U 16049A   26264.58845176 -.00000076  00000-0 -98030-5 0  9995
2 41727  98.4059 270.9359 0000898  90.0509 270.0784 14.42225498532549
Epoch: 2026-09-21T14:07Z
TLE epoch observation values (Epoch: 2026-09-21T14:07:22.232Z)
Latitude
0.00004°
Longitude
58.62714°
Altitude
754.109 km
Speed
7.477 km/s
True Right ascension
18h 03m 44s
True Declination
0° 00' 00"
Sunlit
Object was in daylight at epoch
Visualization orbit readout
Latitude
Unknown
Longitude
Unknown
Altitude
Unknown
Speed
Unknown
Apparent Right ascension
Unknown
Apparent Declination
Unknown
Sunlit
N/A
Visualization observer readout
Local Sidereal Time
12:35:59
Azimuth
Unknown
Elevation
Unknown
Doppler factor
Unknown
Orbital elements
Apogee altitude
748.909 km
Perigee altitude
747.629 km
Semi-major axis
7,126.406 km
Eccentricity
0.00009
Inclination
98.4059°
RAAN
270.9359°
Arg. of periapsis
90.0509°
True anomaly
270.06811°
Mean anomaly
270.0784°
Eccentric anomaly
270.07325°
Mean motion
3.60776 °/min
Orbital period
99.78 mins
BSTAR
-0.000009803
Loading maneuver chart data...
Computing Atmospheric mass density...
Loading historical data...
Loading historical data...
Loading historical data...
Loading historical data...
Loading historical data...
Loading historical data...
Loading historical data...
Other satellites on launch #49 in the year 2016 (2016-08-09 UTC)

Documentation

Showing up to 5 results
|